When you browse on this site, cookies collect data to enhance your experience and personalize the content and advertising you see.
Visit our Privacy Policy to learn more. By continuing to use the site, you agree to this use of cookies and data.
  • In United Kingdom
  • List of Countries
  • For 7 days
  • Water Temperature
  • Satellite Maps
  • Weather Map
  • Weather Widgets
  • user-avatar
    Login

    Hourly Weather Molepolole

    Today, 19 November, Monday

    Time Temperature Precipitation Wind Pressure Humidity
    00:00 +29°C° 0 mm 7 mps 665 mmHg 32%
    01:00 +28°C° 0 mm 7 mps 665 mmHg 36%
    02:00 +26°C° 0 mm 8 mps 665 mmHg 42%
    03:00 +24°C° 0 mm 8 mps 665 mmHg 45%
    04:00 +24°C° 0 mm 7 mps 665 mmHg 48%
    05:00 +23°C° 0 mm 6 mps 665 mmHg 51%
    06:00 +23°C° 0.1 mm 7 mps 666 mmHg 50%
    07:00 +24°C° 0.1 mm 7 mps 666 mmHg 50%
    08:00 +27°C° 0 mm 7 mps 667 mmHg 45%
    09:00 +28°C° 0 mm 7 mps 667 mmHg 41%
    10:00 +30°C° 0 mm 7 mps 667 mmHg 36%
    11:00 +33°C° 0 mm 8 mps 667 mmHg 32%
    12:00 +34°C° 0 mm 7 mps 667 mmHg 28%
    13:00 +36°C° 0 mm 7 mps 666 mmHg 24%
    14:00 +35°C° 0 mm 7 mps 666 mmHg 25%
    15:00 +35°C° 0 mm 6 mps 666 mmHg 23%
    16:00 +36°C° 0 mm 6 mps 665 mmHg 22%
    17:00 +36°C° 0 mm 5 mps 665 mmHg 20%
    18:00 +34°C° 0 mm 5 mps 665 mmHg 23%
    19:00 +33°C° 0 mm 5 mps 665 mmHg 26%
    20:00 +30°C° 0 mm 5 mps 664 mmHg 29%
    21:00 +30°C° 0 mm 5 mps 664 mmHg 31%
    22:00 +29°C° 0 mm 5 mps 664 mmHg 34%
    23:00 +28°C° 0 mm 6 mps 664 mmHg 37%

    Tomorrow, 20 November, Tuesday

    Time Temperature Precipitation Wind Pressure Humidity
    00:00 +27°C° 0 mm 5 mps 664 mmHg 39%
    01:00 +27°C° 0 mm 5 mps 663 mmHg 41%
    02:00 +26°C° 0 mm 5 mps 663 mmHg 43%
    03:00 +26°C° 0 mm 5 mps 663 mmHg 44%
    04:00 +25°C° 0 mm 5 mps 663 mmHg 45%
    05:00 +25°C° 0 mm 5 mps 663 mmHg 46%
    06:00 +26°C° 0 mm 5 mps 663 mmHg 43%
    07:00 +27°C° 0 mm 5 mps 664 mmHg 40%
    08:00 +28°C° 0 mm 5 mps 665 mmHg 37%
    09:00 +30°C° 0 mm 4 mps 665 mmHg 32%
    10:00 +33°C° 0 mm 4 mps 665 mmHg 27%
    11:00 +35°C° 0 mm 3 mps 665 mmHg 22%
    12:00 +36°C° 0 mm 4 mps 665 mmHg 20%
    13:00 +37°C° 0 mm 4 mps 664 mmHg 18%
    14:00 +38°C° 0 mm 4 mps 664 mmHg 16%
    15:00 +37°C° 0.1 mm 4 mps 663 mmHg 18%
    16:00 +36°C° 0.1 mm 4 mps 663 mmHg 20%
    17:00 +35°C° 0.1 mm 4 mps 662 mmHg 22%
    18:00 +33°C° 0.3 mm 3 mps 662 mmHg 27%
    19:00 +31°C° 0.3 mm 3 mps 662 mmHg 31%
    20:00 +29°C° 0.3 mm 3 mps 662 mmHg 35%
    21:00 +28°C° 0.1 mm 2 mps 663 mmHg 36%
    22:00 +28°C° 0.1 mm 1 mps 663 mmHg 38%
    23:00 +27°C° 0.1 mm 1 mps 663 mmHg 39%

    Day after tomorrow, 21 November, Wednesday

    Time Temperature Precipitation Wind Pressure Humidity
    00:00 +27°C° 0.2 mm 1 mps 663 mmHg 40%
    01:00 +26°C° 0.2 mm 2 mps 662 mmHg 42%
    02:00 +26°C° 0.2 mm 2 mps 662 mmHg 44%
    03:00 +25°C° 0 mm 2 mps 662 mmHg 44%
    04:00 +25°C° 0 mm 1 mps 662 mmHg 45%
    05:00 +24°C° 0 mm 1 mps 661 mmHg 46%
    06:00 +26°C° 0 mm 2 mps 662 mmHg 40%
    07:00 +27°C° 0 mm 2 mps 663 mmHg 34%
    08:00 +29°C° 0 mm 3 mps 664 mmHg 28%
    09:00 +31°C° 0 mm 3 mps 664 mmHg 24%
    10:00 +34°C° 0 mm 2 mps 664 mmHg 20%
    11:00 +36°C° 0 mm 2 mps 665 mmHg 17%
    12:00 +37°C° 0 mm 3 mps 664 mmHg 15%
    13:00 +38°C° 0 mm 3 mps 664 mmHg 13%
    14:00 +40°C° 0 mm 4 mps 663 mmHg 11%
    15:00 +40°C° 0 mm 5 mps 663 mmHg 10%
    16:00 +39°C° 0 mm 5 mps 662 mmHg 9%
    17:00 +39°C° 0 mm 6 mps 662 mmHg 9%
    18:00 +36°C° 0 mm 5 mps 662 mmHg 10%
    19:00 +34°C° 0 mm 4 mps 662 mmHg 11%
    20:00 +31°C° 0 mm 3 mps 662 mmHg 11%
    21:00 +30°C° 0 mm 3 mps 663 mmHg 12%
    22:00 +29°C° 0 mm 3 mps 663 mmHg 12%
    23:00 +28°C° 0 mm 3 mps 663 mmHg 12%

    22 November, Thursday

    Time Temperature Precipitation Wind Pressure Humidity
    00:00 +28°C° 0 mm 3 mps 663 mmHg 12%
    01:00 +27°C° 0 mm 3 mps 662 mmHg 11%
    02:00 +26°C° 0 mm 3 mps 662 mmHg 11%
    03:00 +25°C° 0 mm 3 mps 662 mmHg 13%
    04:00 +25°C° 0 mm 3 mps 662 mmHg 15%
    05:00 +24°C° 0 mm 3 mps 662 mmHg 18%
    06:00 +26°C° 0 mm 3 mps 663 mmHg 17%
    07:00 +28°C° 0 mm 3 mps 663 mmHg 16%
    08:00 +30°C° 0 mm 3 mps 664 mmHg 16%
    09:00 +33°C° 0 mm 3 mps 664 mmHg 14%
    10:00 +35°C° 0 mm 2 mps 665 mmHg 12%
    11:00 +37°C° 0 mm 2 mps 665 mmHg 10%
    12:00 +38°C° 0 mm 2 mps 664 mmHg 10%
    13:00 +39°C° 0 mm 2 mps 664 mmHg 9%
    14:00 +40°C° 0 mm 2 mps 663 mmHg 9%
    15:00 +40°C° 0 mm 3 mps 663 mmHg 8%
    16:00 +39°C° 0 mm 3 mps 662 mmHg 8%
    17:00 +39°C° 0 mm 3 mps 662 mmHg 8%
    18:00 +37°C° 0 mm 4 mps 662 mmHg 10%
    19:00 +36°C° 0 mm 4 mps 663 mmHg 11%
    20:00 +34°C° 0 mm 4 mps 663 mmHg 13%
    21:00 +33°C° 0 mm 4 mps 663 mmHg 18%
    22:00 +32°C° 0 mm 4 mps 663 mmHg 24%
    23:00 +30°C° 0 mm 5 mps 663 mmHg 29%

    23 November, Friday

    Time Temperature Precipitation Wind Pressure Humidity
    00:00 +29°C° 0 mm 4 mps 663 mmHg 33%
    01:00 +28°C° 0 mm 4 mps 663 mmHg 36%
    02:00 +27°C° 0 mm 4 mps 662 mmHg 40%
    03:00 +27°C° 0 mm 4 mps 663 mmHg 44%
    04:00 +26°C° 0 mm 4 mps 663 mmHg 48%
    05:00 +25°C° 0 mm 5 mps 663 mmHg 52%
    06:00 +24°C° 0 mm 6 mps 664 mmHg 54%
    07:00 +24°C° 0 mm 7 mps 664 mmHg 56%
    08:00 +24°C° 0 mm 8 mps 665 mmHg 58%
    09:00 +27°C° 0 mm 7 mps 665 mmHg 54%
    10:00 +28°C° 0 mm 7 mps 666 mmHg 50%
    11:00 +29°C° 0 mm 7 mps 666 mmHg 46%
    12:00 +30°C° 0 mm 6 mps 666 mmHg 43%
    13:00 +32°C° 0 mm 6 mps 665 mmHg 39%
    14:00 +32°C° 0 mm 5 mps 665 mmHg 36%
    15:00 +32°C° 0 mm 5 mps 665 mmHg 36%
    16:00 +32°C° 0 mm 4 mps 664 mmHg 36%
    17:00 +32°C° 0 mm 4 mps 664 mmHg 36%
    18:00 +30°C° 0 mm 4 mps 664 mmHg 39%
    19:00 +29°C° 0 mm 4 mps 664 mmHg 43%
    20:00 +28°C° 0 mm 4 mps 664 mmHg 46%
    21:00 +27°C° 0 mm 5 mps 664 mmHg 51%
    22:00 +26°C° 0 mm 6 mps 665 mmHg 55%
    23:00 +24°C° 0 mm 7 mps 665 mmHg 59%

    24 November, Saturday

    Time Temperature Precipitation Wind Pressure Humidity
    00:00 +23°C° 0 mm 6 mps 665 mmHg 62%
    01:00 +23°C° 0 mm 5 mps 665 mmHg 65%
    02:00 +22°C° 0 mm 4 mps 664 mmHg 68%
    03:00 +22°C° 0 mm 4 mps 664 mmHg 71%
    04:00 +21°C° 0 mm 4 mps 665 mmHg 74%
    05:00 +21°C° 0 mm 4 mps 665 mmHg 76%
    06:00 +21°C° 0 mm 5 mps 666 mmHg 73%
    07:00 +22°C° 0 mm 5 mps 666 mmHg 71%
    08:00 +22°C° 0 mm 5 mps 667 mmHg 68%
    09:00 +23°C° 0 mm 5 mps 667 mmHg 63%
    10:00 +26°C° 0 mm 6 mps 667 mmHg 57%
    11:00 +27°C° 0 mm 6 mps 667 mmHg 52%
    12:00 +29°C° 0 mm 5 mps 666 mmHg 46%
    13:00 +30°C° 0 mm 5 mps 666 mmHg 39%
    14:00 +33°C° 0 mm 4 mps 665 mmHg 33%
    15:00 +33°C° 0 mm 4 mps 665 mmHg 31%
    16:00 +34°C° 0 mm 4 mps 665 mmHg 29%
    17:00 +34°C° 0 mm 4 mps 664 mmHg 27%
    18:00 +31°C° 0 mm 3 mps 664 mmHg 30%
    19:00 +30°C° 0 mm 3 mps 664 mmHg 33%
    20:00 +28°C° 0 mm 3 mps 664 mmHg 37%
    21:00 +28°C° 0 mm 3 mps 665 mmHg 41%
    22:00 +27°C° 0 mm 3 mps 665 mmHg 45%
    23:00 +26°C° 0 mm 3 mps 665 mmHg 49%
    Show more